This is the latest recevied weather packets stored in our database for station/object K8JCL-13. If no packets are shown the sender has not sent any weather packets the latest 1 day(s).
| Time | Temp. | Humidity | Pressure | Rain* | Wind** | Luminosity | Snow |
|---|---|---|---|---|---|---|---|
| 1778017990 | 15.56° C | 99% | 1008 hPa | 3.05 mm | 0 m/s | 16 W/m² | - |
| 1778017688 | 15.56° C | 99% | 1008.1 hPa | 4.83 mm | 0 m/s | 17 W/m² | - |
| 1778017386 | 15.56° C | 99% | 1008 hPa | 3.05 mm | 0 m/s | 14 W/m² | - |
| 1778017082 | 15.56° C | 99% | 1008 hPa | 1.27 mm | 0 m/s | 10 W/m² | - |
| 1778016780 | 15.56° C | 99% | 1008.3 hPa | 0 mm | 0 m/s | 14 W/m² | - |
| 1778016475 | 15.56° C | 99% | 1008.1 hPa | 0 mm | 0 m/s | 24 W/m² | - |
| 1778016173 | 15.56° C | 99% | 1008.1 hPa | 0 mm | 0 m/s | 25 W/m² | - |
| 1778015870 | 15.56° C | 99% | 1008.1 hPa | 1.78 mm | 0 m/s | 36 W/m² | - |
| 1778015568 | 15.56° C | 99% | 1008.3 hPa | 1.78 mm | 0 m/s | 28 W/m² | - |
| 1778015263 | 15.56° C | 99% | 1008.1 hPa | 0 mm | 0 m/s | 50 W/m² | - |
| 1778014960 | 15.56° C | 99% | 1008 hPa | 0 mm | 0 m/s | 51 W/m² | - |
| 1778014658 | 15.56° C | 99% | 1008.1 hPa | 0 mm | 0 m/s | 33 W/m² | - |
| 1778014356 | 15.56° C | 99% | 1008 hPa | 0 mm | 0 m/s | 59 W/m² | - |
| 1778014052 | 16.11° C | 99% | 1008.4 hPa | 1.27 mm | 0 m/s | 75 W/m² | - |
| 1778013750 | 16.11° C | 99% | 1008.3 hPa | 3.05 mm | 0 m/s | 65 W/m² | - |
| 1778013447 | 16.11° C | 98% | 1008.4 hPa | 1.78 mm | 0 m/s | 77 W/m² | - |
| 1778013144 | 16.11° C | 98% | 1008.5 hPa | 1.78 mm | 0 m/s | 85 W/m² | - |
| 1778012840 | 16.11° C | 98% | 1008.4 hPa | 3.05 mm | 0 m/s | 85 W/m² | - |
| 1778012536 | 16.11° C | 98% | 1008.4 hPa | 3.05 mm | 0 m/s | 64 W/m² | - |
| 1778012232 | 16.11° C | 97% | 1008.3 hPa | 4.32 mm | 0 m/s | 63 W/m² | - |
| 1778011930 | 16.11° C | 97% | 1008.5 hPa | 3.05 mm | 0 m/s | 58 W/m² | - |
| 1778011628 | 16.11° C | 96% | 1008.7 hPa | 4.83 mm | 0.45 m/s, 30° | 50 W/m² | - |
| 1778011325 | 16.67° C | 95% | 1008.9 hPa | 4.32 mm | 0 m/s | 56 W/m² | - |
| 1778011021 | 16.67° C | 94% | 1009.1 hPa | 4.32 mm | 0 m/s | 43 W/m² | - |
| 1778010718 | 16.67° C | 92% | 1009 hPa | 3.05 mm | 0 m/s | 54 W/m² | - |
* Rain latest hour (hover to see other rain measurements)
** Current wind speed in m/s (hover to see current wind gust speed)